sat.trackr.live / text

‹ back to catalog

STARLINK-4364

NORAD 53230 · 2022-084AT

PAYLOAD ACTIVE UNKNOWN

§ Identity

Operator
Country
US
Launch date
2022-07-22
Launch site
AFWTR
Launch vehicle
Mass (kg)
RCS (m²)

Purposes: comms

External: N2YO · Heavens-Above · Gunter

§ Orbital elements

Epoch: 2026-05-25T03:48:45.642240Z

Period
95.64 min
Inclination
97.4470°
Eccentricity
0.0001732
Mean motion
15.05654413 rev/d
Perigee alt
548.3 km
Apogee alt
550.7 km
Semi-major
6,927.6 km
B*
-4.2568e-6
RAAN
206.2575°
Arg perigee
128.4755°
Mean anomaly
231.6627°
Rev number
21,089

§ Raw data

STARLINK-43641 53230U 22084AT  26145.15886160 -.00000120  00000+0 -42568-5 0  99962 53230  97.4470 206.2575 0001732 128.4755 231.6627 15.05654413210899

JSON: /api/v1/satellites/53230 · /tle

For live sub-satellite position, see the globe view (requires WebGL).

§ Visibility from observer

Set your observer location to see the next 7 days of passes ≥ 10°. The values pass through the URL so the page stays shareable.

No JS? Fill the form by hand. The geolocation button needs JavaScript.